DM1MT Weather Reports


time (UTC)temp
C
wind
direction
speed
KPH
gust
KPH
rain 1hr
cm
rain 24hr
cm
rain mn
cm
humidity
%
barometer
mb
20260507024543 9 274 3.2 12.9 0.03 0.05 0.03 94 1016.0
20260507023530 9 0.0 0.0 0.03 0.05 0.03 94 1016.0
20260507022522 9 291 4.8 12.9 0.03 0.05 0.03 94 1016.1
20260507021530 9 290 3.2 12.9 0.03 0.05 0.03 93 1015.8
20260507020522 9 314 3.2 8.0 0.03 0.05 0.03 93 1015.8
20260507015530 9 306 4.8 12.9 0.00 0.03 0.00 92 1015.7
20260507014522 9 301 3.2 12.9 0.00 0.03 0.00 92 1015.6
20260507013530 9 314 3.2 12.9 0.00 0.03 0.00 91 1015.6
20260507012522 10 311 6.4 16.1 0.00 0.03 0.00 91 1015.5
20260507011530 10 290 4.8 12.9 0.00 0.03 0.00 90 1015.6
20260507010522 10 325 8.0 16.1 0.00 0.03 0.00 87 1015.4
20260507005551 10 301 4.8 12.9 0.00 0.03 0.00 85 1015.4
20260507004522 10 320 8.0 16.1 0.00 0.03 0.00 84 1015.4
20260507003530 10 328 4.8 12.9 0.00 0.03 0.00 84 1015.3
20260507002522 10 340 6.4 16.1 0.00 0.03 0.00 84 1015.2
20260507001530 10 320 4.8 12.9 0.00 0.03 0.00 85 1015.4
20260507000522 10 331 6.4 16.1 0.00 0.03 0.00 85 1015.4
20260506235530 10 313 4.8 16.1 0.00 0.03 0.00 85 1015.4
20260506234522 10 324 6.4 16.1 0.00 0.03 0.00 84 1015.3
20260506233530 11 295 6.4 16.1 0.00 0.03 0.00 85 1015.1
20260506232522 11 305 4.8 12.9 0.00 0.03 0.00 85 1015.1
20260506231530 11 320 4.8 16.1 0.00 0.03 0.00 85 1015.0
20260506230522 11 337 4.8 12.9 0.00 0.08 0.00 86 1015.0
20260506225530 11 311 3.2 12.9 0.00 0.08 0.00 86 1014.8
20260506224522 11 306 3.2 12.9 0.00 0.08 0.00 86 1014.7
20260506223530 11 318 3.2 12.9 0.00 0.08 0.00 86 1014.7
20260506222522 11 313 4.8 12.9 0.00 0.08 0.00 87 1014.7
20260506221550 11 337 6.4 12.9 0.00 0.08 0.00 86 1014.7
20260506220522 11 334 4.8 12.9 0.00 0.08 0.00 87 1014.6
20260506215528 11 314 4.8 12.9 0.00 0.08 0.08 86 1014.4
20260506214520 11 319 4.8 16.1 0.00 0.08 0.08 87 1014.4
20260506213528 11 307 4.8 12.9 0.00 0.08 0.08 87 1014.4
20260506212520 11 303 3.2 12.9 0.00 0.08 0.08 87 1014.3
20260506211528 11 266 4.8 12.9 0.00 0.08 0.08 87 1014.3
20260506210520 11 276 1.6 8.0 0.00 0.08 0.08 86 1014.2
20260506205528 11 309 4.8 12.9 0.00 0.08 0.08 86 1014.2
20260506204540 11 300 6.4 12.9 0.00 0.08 0.08 86 1014.1
20260506203528 11 286 6.4 20.9 0.00 0.08 0.08 86 1013.8
20260506202520 11 302 6.4 16.1 0.00 0.08 0.08 87 1013.8
20260506201548 12 308 4.8 12.9 0.00 0.08 0.08 87 1013.7
20260506200519 12 281 6.4 16.1 0.00 0.08 0.08 87 1013.7
20260506195548 12 271 8.0 20.9 0.00 0.08 0.08 88 1013.6
20260506194519 12 271 6.4 12.9 0.00 0.08 0.08 88 1013.3
20260506193528 12 244 3.2 8.0 0.00 0.08 0.08 88 1013.3
20260506190430 12 262 3.2 8.0 0.00 0.08 0.08 88 998.4
20260506185450 12 277 8.0 16.1 0.00 0.08 0.08 88 998.2
20260506184330 12 310 9.7 24.1 0.00 0.08 0.08 88 998.1
20260506183443 12 325 11.3 20.9 0.00 0.08 0.08 87 998.0
20260506182325 12 351 6.4 12.9 0.00 0.08 0.08 88 997.9
20260506181350 12 325 9.7 20.9 0.03 0.08 0.08 88 998.1
20260506180350 12 331 8.0 16.1 0.03 0.08 0.08 89 998.0
20260506175416 12 338 8.0 16.1 0.03 0.08 0.08 89 997.8
20260506174330 13 322 8.0 16.1 0.03 0.08 0.08 90 997.6
20260506173330 13 313 6.4 12.9 0.03 0.08 0.08 89 997.4
20260506172649 13 299 9.7 16.1 0.03 0.08 0.08 88 997.4
20260506171353 13 327 8.0 16.1 0.00 0.05 0.05 87 997.4
20260506170604 14 308 9.7 16.1 0.00 0.05 0.05 87 997.4
20260506165416 14 262 8.0 12.9 0.00 0.05 0.05 87 997.1
20260506164610 15 264 14.5 16.1 0.00 0.05 0.05 86 997.1
20260506163310 15 262 9.7 20.9 0.00 0.10 0.05 83 997.1
20260506162316 15 295 8.0 12.9 0.00 0.10 0.05 76 997.2
20260506161416 15 262 9.7 16.1 0.00 0.10 0.05 76 997.2
20260506160349 16 272 11.3 20.9 0.00 0.10 0.05 76 997.3
20260506155650 16 254 8.0 16.1 0.00 0.10 0.05 73 997.2
20260506154329 16 268 11.3 24.1 0.00 0.10 0.05 72 997.1
20260506153330 16 256 12.9 20.9 0.00 0.10 0.05 70 997.0
20260506152330 17 272 12.9 20.9 0.00 0.10 0.05 69 996.9
20260506151429 17 283 14.5 16.1 0.00 0.13 0.05 68 996.9
20260506150409 17 237 4.8 12.9 0.00 0.18 0.05 66 996.8
20260506145330 17 229 8.0 20.9 0.00 0.20 0.05 65 996.7
20260506144315 18 234 6.4 12.9 0.00 0.30 0.05 65 996.8
20260506143556 18 240 8.0 16.1 0.00 0.64 0.05 64 996.7
20260506142355 18 220 8.0 16.1 0.00 0.84 0.05 61 996.7
20260506141330 18 196 9.7 16.1 0.00 0.89 0.05 62 996.9
20260506140329 18 231 8.0 16.1 0.00 0.89 0.05 62 996.5
20260506135350 18 220 8.0 24.1 0.00 0.89 0.05 59 996.6
20260506134329 18 230 8.0 20.9 0.00 0.89 0.05 60 996.6
20260506133315 18 225 9.7 20.9 0.00 0.89 0.05 60 996.6
20260506132309 18 239 8.0 12.9 0.00 0.89 0.05 61 996.6
20260506131349 18 206 9.7 12.9 0.00 0.89 0.05 63 996.9
20260506130349 18 204 11.3 24.1 0.00 0.89 0.05 62 996.6
20260506125437 17 195 17.7 27.4 0.00 0.89 0.05 63 996.6
20260506124349 17 196 8.0 20.9 0.00 0.89 0.05 64 996.7
20260506123329 17 240 4.8 8.0 0.00 0.89 0.05 65 996.9
20260506122429 17 260 11.3 16.1 0.00 0.89 0.05 64 996.6
20260506121315 17 188 8.0 16.1 0.00 0.89 0.05 64 996.9
20260506120329 17 212 9.7 12.9 0.00 0.89 0.05 65 996.6
20260506115249 17 218 11.3 20.9 0.00 0.89 0.05 64 996.9
20260506114349 17 274 4.8 8.0 0.00 0.89 0.05 65 996.8
20260506113416 17 215 6.4 16.1 0.00 0.89 0.05 66 996.9
20260506112310 17 226 6.4 20.9 0.00 0.89 0.05 67 996.9
20260506111249 17 204 12.9 24.1 0.00 0.89 0.05 66 997.0
20260506110249 17 204 6.4 12.9 0.00 0.89 0.05 68 996.8
20260506105249 17 238 8.0 16.1 0.00 0.89 0.05 66 997.0
20260506104729 17 240 8.0 16.1 0.00 0.89 0.05 65 996.9
20260506103329 17 221 4.8 8.0 0.00 0.89 0.05 66 997.2
20260506102309 17 193 9.7 16.1 0.00 0.89 0.05 65 997.1
20260506101309 17 225 14.5 27.4 0.00 0.89 0.05 65 997.1
20260506100309 16 224 9.7 16.1 0.00 0.89 0.05 68 997.1
20260506095309 16 214 12.9 24.1 0.00 0.89 0.05 70 997.1
20260506094309 16 192 4.8 12.9 0.00 0.89 0.05 73 997.1
20260506093309 16 191 8.0 16.1 0.00 0.89 0.05 74 997.2
20260506092242 16 156 4.8 12.9 0.00 0.89 0.05 74 997.2
20260506091709 16 201 8.0 16.1 0.00 0.89 0.05 73 997.2
20260506090329 16 237 11.3 20.9 0.00 0.89 0.05 72 997.0
20260506084829 16 230 8.0 20.9 0.00 0.89 0.05 71 997.0
20260506083809 16 245 11.3 16.1 0.00 0.89 0.05 72 996.9
20260506082829 16 205 11.3 24.1 0.00 0.89 0.05 71 996.8
20260506081809 15 224 8.0 20.9 0.00 0.89 0.05 75 996.8
20260506081309 15 218 12.9 24.1 0.00 0.89 0.05 78 997.0
20260506072749 14 209 8.0 20.9 0.00 0.89 0.05 86 996.8
20260506071829 14 217 9.7 12.9 0.00 0.89 0.05 87 996.8
20260506070809 14 227 9.7 20.9 0.00 0.89 0.05 88 996.8
20260506061809 13 235 3.2 8.0 0.00 0.89 0.05 94 996.6
20260506060714 12 179 4.8 16.1 0.00 0.89 0.05 95 996.6
20260506050848 12 204 1.6 3.2 0.00 0.89 0.05 97 996.6
20260506044809 12 0.0 0.0 0.00 0.89 0.05 97 996.8
20260506043849 12 219 0.0 3.2 0.00 0.89 0.05 97 996.8
20260506042909 12 225 3.2 8.0 0.00 0.89 0.05 97 996.5
20260506041721 12 215 6.4 8.0 0.00 0.89 0.05 97 996.8
20260506040748 12 224 3.2 12.9 0.00 0.89 0.05 98 996.6
20260506035808 12 227 1.6 8.0 0.00 0.89 0.05 98 996.5
20260506034733 12 221 3.2 8.0 0.00 0.89 0.05 98 996.8
20260506033814 12 226 1.6 8.0 0.00 0.89 0.05 98 996.8
20260506032808 12 221 6.4 12.9 0.00 0.89 0.05 98 996.9
20260506031908 12 0.0 0.0 0.00 0.89 0.05 98 996.8
20260506030835 12 235 0.0 3.2 0.00 0.89 0.05 98 996.8
20260506025828 12 207 3.2 8.0 0.00 0.89 0.05 98 996.8